Time,TemperatureF,DewpointF,PressureIn,WindDirection,WindDirectionDegrees,WindSpeedMPH,WindSpeedGustMPH,Humidity,HourlyPrecipIn,Conditions,Clouds,dailyrainin,SoftwareType,DateUTC
2013-09-29 00:00:00,73.9,69.8,30.03,NNE,31,0.0,7.0,87,0.00,,,0.00,Wunderground v.1.15,2013-09-29 04:00:00,
2013-09-29 00:10:00,74.1,70.0,30.03,NE,38,0.0,7.0,87,0.00,,,0.00,Wunderground v.1.15,2013-09-29 04:10:00,
2013-09-29 00:20:00,74.2,70.1,30.03,North,9,0.0,7.0,87,0.00,,,0.00,Wunderground v.1.15,2013-09-29 04:20:00,
2013-09-29 00:30:00,74.2,70.1,30.03,NNE,22,0.0,7.0,87,0.00,,,0.00,Wunderground v.1.15,2013-09-29 04:30:00,
2013-09-29 00:40:00,74.2,70.4,30.03,NNE,19,0.0,7.0,88,0.00,,,0.00,Wunderground v.1.15,2013-09-29 04:40:00,
2013-09-29 00:50:00,74.0,70.2,30.03,NE,38,0.0,7.0,88,0.00,,,0.00,Wunderground v.1.15,2013-09-29 04:50:00,
2013-09-29 01:00:00,74.1,70.6,30.03,NE,44,0.0,7.0,89,0.00,,,0.00,Wunderground v.1.15,2013-09-29 05:00:00,
2013-09-29 01:10:00,74.1,70.6,30.03,NE,44,0.0,7.0,89,0.00,,,0.00,Wunderground v.1.15,2013-09-29 05:10:00,
2013-09-29 01:19:00,74.2,70.4,30.02,NE,53,0.0,7.0,88,0.00,,,0.00,Wunderground v.1.15,2013-09-29 05:19:00,
2013-09-29 01:30:00,74.2,70.4,30.02,NNE,31,0.0,7.0,88,0.00,,,0.00,Wunderground v.1.15,2013-09-29 05:30:00,
2013-09-29 01:39:00,74.1,70.6,30.01,North,11,0.0,7.0,89,0.00,,,0.00,Wunderground v.1.15,2013-09-29 05:39:00,
2013-09-29 01:50:00,74.1,70.6,30.01,ENE,65,0.0,7.0,89,0.00,,,0.00,Wunderground v.1.15,2013-09-29 05:50:00,
2013-09-29 02:00:00,74.0,70.6,30.01,North,349,0.0,7.0,89,0.00,,,0.00,Wunderground v.1.15,2013-09-29 06:00:00,
2013-09-29 02:10:00,73.8,70.7,30.01,North,349,0.0,7.0,90,0.00,,,0.00,Wunderground v.1.15,2013-09-29 06:10:00,
2013-09-29 02:20:00,73.7,70.6,30.00,NE,46,0.0,7.0,90,0.00,,,0.00,Wunderground v.1.15,2013-09-29 06:20:00,
2013-09-29 02:30:00,73.7,70.6,30.00,NE,53,0.0,7.0,90,0.00,,,0.00,Wunderground v.1.15,2013-09-29 06:30:00,
2013-09-29 02:40:00,73.8,70.7,30.00,ENE,60,0.0,7.0,90,0.00,,,0.00,Wunderground v.1.15,2013-09-29 06:40:00,
2013-09-29 02:50:00,73.8,70.7,30.00,NE,48,0.0,7.0,90,0.00,,,0.00,Wunderground v.1.15,2013-09-29 06:50:00,
2013-09-29 03:00:00,73.7,70.6,30.00,NE,48,0.0,7.0,90,0.00,,,0.00,Wunderground v.1.15,2013-09-29 07:00:00,
2013-09-29 03:10:00,73.5,70.4,30.00,NNE,22,0.0,7.0,90,0.00,,,0.00,Wunderground v.1.15,2013-09-29 07:10:00,
2013-09-29 03:20:00,73.4,70.3,30.00,North,5,0.0,7.0,90,0.00,,,0.00,Wunderground v.1.15,2013-09-29 07:20:00,
2013-09-29 03:29:00,73.3,70.2,30.00,NE,53,0.0,7.0,90,0.00,,,0.00,Wunderground v.1.15,2013-09-29 07:29:00,
2013-09-29 03:40:00,73.2,70.1,30.00,NE,41,0.0,7.0,90,0.00,,,0.00,Wunderground v.1.15,2013-09-29 07:40:00,
2013-09-29 03:50:00,73.1,70.3,30.00,NE,41,0.0,7.0,91,0.00,,,0.00,Wunderground v.1.15,2013-09-29 07:50:00,
2013-09-29 04:00:00,72.9,70.1,30.00,NE,41,0.0,7.0,91,0.00,,,0.00,Wunderground v.1.15,2013-09-29 08:00:00,
2013-09-29 04:10:00,72.8,70.0,30.00,ENE,75,0.0,7.0,91,0.00,,,0.00,Wunderground v.1.15,2013-09-29 08:10:00,
2013-09-29 04:20:00,72.8,70.0,30.00,NE,55,0.0,7.0,91,0.00,,,0.00,Wunderground v.1.15,2013-09-29 08:20:00,
2013-09-29 04:30:00,72.7,69.9,30.00,ENE,64,0.0,7.0,91,0.00,,,0.00,Wunderground v.1.15,2013-09-29 08:30:00,
2013-09-29 04:40:00,72.3,69.2,30.00,NE,55,0.0,7.0,90,0.00,,,0.00,Wunderground v.1.15,2013-09-29 08:40:00,
2013-09-29 04:49:00,71.9,69.1,30.00,NNE,33,0.0,7.0,91,0.00,,,0.00,Wunderground v.1.15,2013-09-29 08:49:00,
2013-09-29 05:00:00,71.6,69.2,30.00,North,350,0.0,7.0,92,0.00,,,0.00,Wunderground v.1.15,2013-09-29 09:00:00,
2013-09-29 05:10:00,71.3,68.9,30.00,North,350,0.0,7.0,92,0.00,,,0.00,Wunderground v.1.15,2013-09-29 09:10:00,
2013-09-29 05:20:00,71.2,68.8,30.00,North,350,0.0,7.0,92,0.00,,,0.00,Wunderground v.1.15,2013-09-29 09:20:00,
2013-09-29 05:40:00,70.8,68.7,30.01,North,350,0.0,7.0,93,0.00,,,0.00,Wunderground v.1.15,2013-09-29 09:40:00,
2013-09-29 05:49:00,70.4,68.6,30.01,North,350,0.0,7.0,94,0.00,,,0.00,Wunderground v.1.15,2013-09-29 09:49:00,
2013-09-29 06:00:00,70.0,68.2,30.01,North,350,0.0,7.0,94,0.00,,,0.00,Wunderground v.1.15,2013-09-29 10:00:00,
2013-09-29 06:10:00,69.8,68.0,30.01,North,350,0.0,7.0,94,0.00,,,0.00,Wunderground v.1.15,2013-09-29 10:10:00,
2013-09-29 06:20:00,69.3,67.5,30.02,North,360,0.0,7.0,94,0.00,,,0.00,Wunderground v.1.15,2013-09-29 10:20:00,
2013-09-29 06:30:00,69.0,67.5,30.02,ENE,67,0.0,7.0,95,0.00,,,0.00,Wunderground v.1.15,2013-09-29 10:30:00,
2013-09-29 06:40:00,68.9,67.4,30.02,ENE,67,0.0,7.0,95,0.00,,,0.00,Wunderground v.1.15,2013-09-29 10:40:00,
2013-09-29 06:50:00,68.7,67.2,30.02,ENE,67,0.0,7.0,95,0.00,,,0.00,Wunderground v.1.15,2013-09-29 10:50:00,
2013-09-29 07:00:00,68.6,67.1,30.03,ENE,67,0.0,7.0,95,0.00,,,0.00,Wunderground v.1.15,2013-09-29 11:00:00,
2013-09-29 07:10:00,68.5,67.0,30.03,ENE,67,0.0,7.0,95,0.00,,,0.00,Wunderground v.1.15,2013-09-29 11:10:00,
2013-09-29 07:20:00,68.5,67.0,30.03,ENE,69,0.0,7.0,95,0.00,,,0.00,Wunderground v.1.15,2013-09-29 11:20:00,
2013-09-29 07:30:00,68.2,66.7,30.03,ENE,69,0.0,7.0,95,0.00,,,0.00,Wunderground v.1.15,2013-09-29 11:30:00,
2013-09-29 07:40:00,67.9,66.1,30.03,WSW,238,0.0,7.0,94,0.00,,,0.00,Wunderground v.1.15,2013-09-29 11:40:00,
2013-09-29 07:50:00,67.8,66.3,30.04,WSW,238,0.0,7.0,95,0.00,,,0.00,Wunderground v.1.15,2013-09-29 11:50:00,
2013-09-29 07:59:00,67.9,66.4,30.03,ENE,70,0.0,7.0,95,0.00,,,0.00,Wunderground v.1.15,2013-09-29 11:59:00,
2013-09-29 08:10:00,68.0,66.5,30.04,SSW,205,0.0,7.0,95,0.00,,,0.00,Wunderground v.1.15,2013-09-29 12:10:00,
2013-09-29 08:20:00,68.2,66.7,30.03,WNW,288,0.0,7.0,95,0.00,,,0.00,Wunderground v.1.15,2013-09-29 12:20:00,
2013-09-29 08:30:00,68.4,66.9,30.03,North,5,0.0,7.0,95,0.00,,,0.00,Wunderground v.1.15,2013-09-29 12:30:00,
2013-09-29 08:40:00,68.7,66.9,30.03,SSE,153,0.0,7.0,94,0.00,,,0.00,Wunderground v.1.15,2013-09-29 12:40:00,
2013-09-29 08:50:00,69.0,67.2,30.03,East,95,0.0,7.0,94,0.00,,,0.00,Wunderground v.1.15,2013-09-29 12:50:00,
2013-09-29 09:00:00,69.4,67.6,30.03,NNW,347,0.0,7.0,94,0.00,,,0.00,Wunderground v.1.15,2013-09-29 13:00:00,
2013-09-29 09:10:00,69.7,67.6,30.04,North,355,0.0,7.0,93,0.00,,,0.00,Wunderground v.1.15,2013-09-29 13:10:00,
2013-09-29 09:20:00,70.1,68.0,30.04,NNE,26,0.0,7.0,93,0.00,,,0.00,Wunderground v.1.15,2013-09-29 13:20:00,
2013-09-29 09:30:00,70.6,68.5,30.03,NE,45,0.0,7.0,93,0.00,,,0.00,Wunderground v.1.15,2013-09-29 13:30:00,
2013-09-29 09:40:00,71.3,68.9,30.04,NE,45,0.0,7.0,92,0.00,,,0.00,Wunderground v.1.15,2013-09-29 13:40:00,
2013-09-29 09:50:00,72.4,69.9,30.03,West,262,0.0,7.0,92,0.00,,,0.00,Wunderground v.1.15,2013-09-29 13:50:00,
2013-09-29 10:00:00,73.9,71.1,30.03,WSW,245,0.0,7.0,91,0.00,,,0.00,Wunderground v.1.15,2013-09-29 14:00:00,
2013-09-29 10:10:00,75.3,71.8,30.03,North,5,0.0,7.0,89,0.00,,,0.00,Wunderground v.1.15,2013-09-29 14:10:00,
2013-09-29 10:19:00,76.1,71.6,30.04,NNE,13,0.0,7.0,86,0.00,,,0.00,Wunderground v.1.15,2013-09-29 14:19:00,
2013-09-29 10:30:00,76.3,71.8,30.04,ENE,58,0.0,7.0,86,0.00,,,0.00,Wunderground v.1.15,2013-09-29 14:30:00,
2013-09-29 10:39:00,76.4,71.9,30.04,ENE,58,0.0,7.0,86,0.00,,,0.00,Wunderground v.1.15,2013-09-29 14:39:00,
2013-09-29 10:50:00,76.6,71.7,30.03,NE,34,0.0,7.0,85,0.00,,,0.00,Wunderground v.1.15,2013-09-29 14:50:00,
2013-09-29 11:00:00,77.0,72.5,30.03,NE,38,0.0,7.0,86,0.00,,,0.00,Wunderground v.1.15,2013-09-29 15:00:00,
2013-09-29 11:10:00,77.3,72.4,30.03,NE,44,0.0,7.0,85,0.00,,,0.00,Wunderground v.1.15,2013-09-29 15:10:00,
2013-09-29 11:20:00,78.0,72.8,30.03,NE,47,0.0,7.0,84,0.00,,,0.00,Wunderground v.1.15,2013-09-29 15:20:00,
2013-09-29 11:30:00,77.8,72.6,30.03,ENE,71,0.0,7.0,84,0.00,,,0.00,Wunderground v.1.15,2013-09-29 15:30:00,
2013-09-29 11:40:00,78.3,72.3,30.03,North,9,0.0,7.0,82,0.00,,,0.00,Wunderground v.1.15,2013-09-29 15:40:00,
2013-09-29 11:50:00,79.1,72.8,30.03,North,360,0.0,7.0,81,0.00,,,0.00,Wunderground v.1.15,2013-09-29 15:50:00,
2013-09-29 11:59:00,78.9,72.2,30.03,North,351,0.0,7.0,80,0.00,,,0.00,Wunderground v.1.15,2013-09-29 15:59:00,
2013-09-29 12:10:00,78.6,72.3,30.03,ENE,61,0.0,7.0,81,0.00,,,0.00,Wunderground v.1.15,2013-09-29 16:10:00,
2013-09-29 12:20:00,79.4,71.9,30.03,NE,43,0.0,7.0,78,0.00,,,0.00,Wunderground v.1.15,2013-09-29 16:20:00,
2013-09-29 12:30:00,80.0,72.1,30.03,ENE,66,0.0,7.0,77,0.00,,,0.00,Wunderground v.1.15,2013-09-29 16:30:00,
2013-09-29 12:40:00,79.8,71.6,30.03,ENE,67,0.0,7.0,76,0.00,,,0.00,Wunderground v.1.15,2013-09-29 16:40:00,
2013-09-29 12:50:00,80.6,72.3,30.03,NE,35,0.0,7.0,76,0.00,,,0.00,Wunderground v.1.15,2013-09-29 16:50:00,
2013-09-29 13:00:00,81.1,72.0,30.02,NNE,17,0.0,7.0,74,0.00,,,0.00,Wunderground v.1.15,2013-09-29 17:00:00,
2013-09-29 13:09:00,81.3,72.6,30.03,NNW,336,0.0,7.0,75,0.00,,,0.00,Wunderground v.1.15,2013-09-29 17:09:00,
2013-09-29 13:20:00,80.4,72.1,30.02,NNE,30,0.0,7.0,76,0.00,,,0.00,Wunderground v.1.15,2013-09-29 17:20:00,
2013-09-29 13:30:00,81.3,72.6,30.01,NE,43,0.0,7.0,75,0.00,,,0.00,Wunderground v.1.15,2013-09-29 17:30:00,
2013-09-29 13:40:00,81.8,72.3,30.01,ENE,61,0.0,7.0,73,0.00,,,0.00,Wunderground v.1.15,2013-09-29 17:40:00,
2013-09-29 13:50:00,81.2,71.7,30.01,NE,37,0.0,7.0,73,0.00,,,0.00,Wunderground v.1.15,2013-09-29 17:50:00,
2013-09-29 14:00:00,81.4,72.3,30.01,NNE,30,1.0,1.0,74,0.00,,,0.00,Wunderground v.1.15,2013-09-29 18:00:00,
2013-09-29 14:10:00,81.1,71.6,30.00,NE,34,0.0,7.0,73,0.00,,,0.00,Wunderground v.1.15,2013-09-29 18:10:00,
2013-09-29 14:20:00,80.3,71.3,30.00,NE,48,0.0,7.0,74,0.00,,,0.00,Wunderground v.1.15,2013-09-29 18:20:00,
2013-09-29 14:30:00,80.3,71.3,29.99,NNE,33,0.0,7.0,74,0.00,,,0.00,Wunderground v.1.15,2013-09-29 18:30:00,
2013-09-29 14:39:00,80.2,70.8,29.99,ENE,60,0.0,11.0,73,0.00,,,0.00,Wunderground v.1.15,2013-09-29 18:39:00,
2013-09-29 14:50:00,80.5,71.4,29.99,NE,55,0.0,7.0,74,0.00,,,0.00,Wunderground v.1.15,2013-09-29 18:50:00,
2013-09-29 15:00:00,80.6,70.7,29.99,NE,40,0.0,7.0,72,0.00,,,0.00,Wunderground v.1.15,2013-09-29 19:00:00,
2013-09-29 15:10:00,81.0,70.7,29.98,NE,53,0.0,7.0,71,0.00,,,0.00,Wunderground v.1.15,2013-09-29 19:10:00,
2013-09-29 15:20:00,80.3,70.4,29.98,NE,47,0.0,7.0,72,0.00,,,0.00,Wunderground v.1.15,2013-09-29 19:20:00,
2013-09-29 15:30:00,79.3,69.5,29.99,North,350,0.0,7.0,72,0.00,,,0.00,Wunderground v.1.15,2013-09-29 19:30:00,
2013-09-29 15:40:00,79.2,69.8,29.98,East,85,1.0,1.0,73,0.00,,,0.00,Wunderground v.1.15,2013-09-29 19:40:00,
2013-09-29 15:50:00,79.4,70.4,29.98,NE,49,0.0,7.0,74,0.00,,,0.00,Wunderground v.1.15,2013-09-29 19:50:00,
2013-09-29 16:00:00,80.1,70.7,29.98,NNE,28,0.0,7.0,73,0.00,,,0.00,Wunderground v.1.15,2013-09-29 20:00:00,
2013-09-29 16:10:00,80.0,70.2,29.97,North,360,0.0,7.0,72,0.00,,,0.00,Wunderground v.1.15,2013-09-29 20:10:00,
2013-09-29 16:20:00,79.9,70.5,29.97,NNE,20,0.0,7.0,73,0.00,,,0.00,Wunderground v.1.15,2013-09-29 20:20:00,
2013-09-29 16:30:00,79.5,70.9,29.97,NE,49,0.0,7.0,75,0.00,,,0.00,Wunderground v.1.15,2013-09-29 20:30:00,
2013-09-29 16:40:00,79.6,70.6,29.97,NE,41,0.0,7.0,74,0.00,,,0.00,Wunderground v.1.15,2013-09-29 20:40:00,
2013-09-29 16:49:00,79.4,70.8,29.97,East,101,0.0,7.0,75,0.00,,,0.00,Wunderground v.1.15,2013-09-29 20:49:00,
2013-09-29 17:00:00,78.9,70.3,29.97,NNE,23,1.0,1.0,75,0.00,,,0.00,Wunderground v.1.15,2013-09-29 21:00:00,
2013-09-29 17:09:00,78.8,70.6,29.97,NE,38,0.0,7.0,76,0.00,,,0.00,Wunderground v.1.15,2013-09-29 21:09:00,
2013-09-29 17:20:00,78.9,70.3,29.97,ENE,61,0.0,7.0,75,0.00,,,0.00,Wunderground v.1.15,2013-09-29 21:20:00,
2013-09-29 17:30:00,78.6,69.6,29.98,NE,34,0.0,7.0,74,0.00,,,0.00,Wunderground v.1.15,2013-09-29 21:30:00,
2013-09-29 17:40:00,78.0,69.0,29.98,NE,44,0.0,7.0,74,0.00,,,0.00,Wunderground v.1.15,2013-09-29 21:40:00,
2013-09-29 17:50:00,77.6,69.0,29.98,ENE,61,0.0,7.0,75,0.00,,,0.00,Wunderground v.1.15,2013-09-29 21:50:00,
2013-09-29 17:59:00,76.7,68.6,29.98,NNW,344,0.0,7.0,76,0.00,,,0.00,Wunderground v.1.15,2013-09-29 21:59:00,
2013-09-29 18:10:00,76.4,69.0,29.98,ENE,63,0.0,7.0,78,0.00,,,0.00,Wunderground v.1.15,2013-09-29 22:10:00,
2013-09-29 18:20:00,76.2,69.2,29.98,NE,35,0.0,7.0,79,0.00,,,0.00,Wunderground v.1.15,2013-09-29 22:20:00,
2013-09-29 18:30:00,76.2,68.8,29.99,NE,53,0.0,7.0,78,0.00,,,0.00,Wunderground v.1.15,2013-09-29 22:30:00,
2013-09-29 18:40:00,76.1,68.7,29.99,NE,46,0.0,7.0,78,0.00,,,0.00,Wunderground v.1.15,2013-09-29 22:40:00,
2013-09-29 18:50:00,75.7,68.4,29.99,ENE,67,0.0,7.0,78,0.00,,,0.00,Wunderground v.1.15,2013-09-29 22:50:00,
2013-09-29 19:00:00,75.4,68.4,29.99,NE,50,0.0,7.0,79,0.00,,,0.00,Wunderground v.1.15,2013-09-29 23:00:00,
2013-09-29 19:10:00,75.1,68.1,29.99,NE,51,0.0,7.0,79,0.00,,,0.00,Wunderground v.1.15,2013-09-29 23:10:00,
2013-09-29 19:20:00,74.8,68.2,29.99,ENE,75,0.0,7.0,80,0.00,,,0.00,Wunderground v.1.15,2013-09-29 23:20:00,
2013-09-29 19:30:00,74.5,68.3,29.99,NE,55,0.0,7.0,81,0.00,,,0.00,Wunderground v.1.15,2013-09-29 23:30:00,
2013-09-29 19:40:00,74.4,68.2,29.99,ESE,102,0.0,7.0,81,0.00,,,0.00,Wunderground v.1.15,2013-09-29 23:40:00,
2013-09-29 19:49:00,74.1,68.3,29.99,East,94,0.0,7.0,82,0.00,,,0.00,Wunderground v.1.15,2013-09-29 23:49:00,
2013-09-29 20:00:00,73.9,68.4,30.00,NE,50,0.0,7.0,83,0.00,,,0.00,Wunderground v.1.15,2013-09-30 00:00:00,
2013-09-29 20:10:00,73.8,68.3,30.00,ENE,65,0.0,7.0,83,0.00,,,0.00,Wunderground v.1.15,2013-09-30 00:10:00,
2013-09-29 20:20:00,73.6,68.1,30.00,NNE,32,0.0,7.0,83,0.00,,,0.00,Wunderground v.1.15,2013-09-30 00:20:00,
2013-09-29 20:30:00,73.5,68.0,30.00,ENE,57,0.0,7.0,83,0.00,,,0.00,Wunderground v.1.15,2013-09-30 00:30:00,
2013-09-29 20:40:00,73.3,68.2,30.00,ENE,58,0.0,7.0,84,0.00,,,0.00,Wunderground v.1.15,2013-09-30 00:40:00,
2013-09-29 20:50:00,73.1,68.3,30.00,ENE,58,0.0,7.0,85,0.00,,,0.00,Wunderground v.1.15,2013-09-30 00:50:00,
2013-09-29 21:00:00,72.9,68.1,30.00,ENE,58,0.0,7.0,85,0.00,,,0.00,Wunderground v.1.15,2013-09-30 01:00:00,
2013-09-29 21:10:00,72.7,67.9,30.01,ENE,69,0.0,7.0,85,0.00,,,0.00,Wunderground v.1.15,2013-09-30 01:10:00,
2013-09-29 21:20:00,72.6,68.2,30.01,ENE,69,0.0,7.0,86,0.00,,,0.00,Wunderground v.1.15,2013-09-30 01:20:00,
2013-09-29 21:29:00,72.3,67.9,30.01,ENE,69,0.0,7.0,86,0.00,,,0.00,Wunderground v.1.15,2013-09-30 01:29:00,
2013-09-29 21:40:00,72.1,68.0,30.01,ENE,69,0.0,7.0,87,0.00,,,0.00,Wunderground v.1.15,2013-09-30 01:40:00,
2013-09-29 21:50:00,71.9,67.8,30.01,ENE,69,0.0,7.0,87,0.00,,,0.00,Wunderground v.1.15,2013-09-30 01:50:00,
2013-09-29 22:09:00,71.5,67.8,30.01,ENE,69,0.0,7.0,88,0.00,,,0.00,Wunderground v.1.15,2013-09-30 02:09:00,
2013-09-29 22:20:00,71.3,67.6,30.01,ENE,69,0.0,7.0,88,0.00,,,0.00,Wunderground v.1.15,2013-09-30 02:20:00,
2013-09-29 22:30:00,71.1,67.7,30.01,ENE,69,0.0,7.0,89,0.00,,,0.00,Wunderground v.1.15,2013-09-30 02:30:00,
2013-09-29 22:40:00,70.9,67.5,30.01,ENE,69,0.0,7.0,89,0.00,,,0.00,Wunderground v.1.15,2013-09-30 02:40:00,
2013-09-29 22:50:00,70.6,67.2,30.01,ENE,69,0.0,7.0,89,0.00,,,0.00,Wunderground v.1.15,2013-09-30 02:50:00,
2013-09-29 22:59:00,70.3,67.2,30.01,ENE,69,0.0,7.0,90,0.00,,,0.00,Wunderground v.1.15,2013-09-30 02:59:00,
2013-09-29 23:10:00,70.1,67.3,30.01,ENE,69,0.0,7.0,91,0.00,,,0.00,Wunderground v.1.15,2013-09-30 03:10:00,
2013-09-29 23:20:00,69.9,67.2,30.01,ENE,69,0.0,7.0,91,0.00,,,0.00,Wunderground v.1.15,2013-09-30 03:20:00,
2013-09-29 23:30:00,69.8,67.1,30.00,ENE,69,0.0,7.0,91,0.00,,,0.00,Wunderground v.1.15,2013-09-30 03:30:00,
2013-09-29 23:40:00,69.7,67.3,30.01,ENE,69,0.0,7.0,92,0.00,,,0.00,Wunderground v.1.15,2013-09-30 03:40:00,
2013-09-29 23:50:00,69.7,67.3,30.00,ENE,69,0.0,7.0,92,0.00,,,0.00,Wunderground v.1.15,2013-09-30 03:50:00,